User: anonymous   Login
Location: Unspecified
(0.0000°N, 0.0000°E)
Time: 02:19:44
(UTC+00:00)
Language:

METEOR M2 - Orbit

View from above orbital plane
View from above orbital plane
View from above satellite
View from above satellite

Ground track
Ground track

The orbit data is extracted from the following two-line orbital elements,

1 40069U 14037A   22330.37569858  .00000016  00000-0  26476-4 0  9991
2 40069  98.4277 340.7617 0005108 201.7652 158.3313 14.20727594434852
Epoch (UTC): 26 November 2022 09:01:00
Eccentricity: 0.0005108
inclination: 98.4277°
perigee height: 819 km
apogee height: 826 km
right ascension of ascending node: 340.7617°
argument of perigee: 201.7652°
revolutions per day: 14.20727594
mean anomaly at epoch: 158.3313°
orbit number at epoch: 43485

The dashed part of the orbit path shows where the satellite is in the earth's shadow,  

DLR